Погода в Екатеринбурге

Погода в Екатеринбурге : погода сейчас, прогноз погоды и архив. Всё, что Вы хотите узнать о погоде в Екатеринбурге!

Хотите узнать прогноз погоды в Екатеринбурге? Тогда Вам сюда: Погода в Екатеринбурге

Поиск расширенной информации на нашем сайте:

Другие новости

Новости СМИ2

Главная страница сайта

Новости сайта

02.10.2013

Напоминаем, что на нашем новом сайте вы можете получить высокодетализированные прогнозы погоды по пунктам России, СНГ и мира (включающие важные для авиации метеовеличины, такие как направление и скорость ветра, видимость, явления погоды, количество и форма облачности, нижняя и верхняя граница облачности), а также ознакомиться с разнообразными материалами по авиационной метеорологии и подборкой полезных ссылок на эту тему.

Сайт Метеоцентр.Азия посвящён разработке технологий оптимизации авиаметеорологического обслуживания, включая проектирование и перспективное создание нескольких автоматизированных авиаметеорологических систем:
- система выпуска высокодетальных прогностических карт явлений погоды для нижнего воздушного пространства по России и ближнему зарубежью;
- система верификации прогнозов TAF (выпускаемых синоптиками официальных АМСГ РФ и ближнего зарубежья) и AUTOTAF (выпускаемых сайтом Метеоцентр.Азия) - выявление ошибок, онлайн-сопоставление с фактической погодой METAR, автоматическое внесение коррективов в прогнозы при резком отклонении фактической погоды от прогноза, подсчёт оправдываемости прогнозов по элементам и в целом;
- система обработки, анализа и отображения авиаметеорологической информации для применения провайдерами метеорологической информации.


Погода в Екатеринбурге - сегодня

Время (UTC), дата Ветер
(°,м/с) 
Видим.   Явления Облачность Т
(°С)
Тd
(°С)
f(%) Тe
(°С)
Pmin
(гПа)
dP
(гПа)
Po
(мм)
O2
(г/м3)
Тmin Tmax R s Состояние
почвы
12 25.05.17 310 (СЗ) 20000 м    1/0 верхняя 
[Ci sp]
+16.1 -6.5 21 +16  1016.5  -0.2  738  281           
15 25.05.17 340 (С) 20000 м    1/0 верхняя 
[Ci sp]
+15 -6.9 21 +16  1017  0.4  738  282    +16.6       
18 25.05.17 020 (С) 10 км    ясно 
+12 -5.2 30 +13  1018.7  1.3  739  286           
21 25.05.17 130 (ЮВ) 10 км    ясно 
+7.5 -3.2 47 +7  1020  0.8  739  290           
00 26.05.17 130 (ЮВ) 20000 м    8/4 600 м верхняя 
[Sc|Cs]
+5 -2.1 60 +5  1020.4  0.1  740  293           
03 26.05.17 160 (Ю) 20000 м    8/4 600 м верхняя 
[Cu Sc|Cc]
+11.2 -1.3 42 +11  1018.7  -0.9  739  286  +5        влажная 
06 26.05.17 160 (Ю) 20000 м    8/8 600 м 
[Cu Sc]
+19 +1.4 31 +19  1015.9  -1.9  737  278           
09 26.05.17 170 (Ю) 20000 м  {ливн. осадки}  9/9 600 м кучево-дожд. 
[Cb calv]
+22.3 +5.7 34 +22  1013.4  -2  736  273           
12 26.05.17 150 (ЮВ) 3{11}  20000 м  {гроза, ливн. осадки}  9/8 600 м кучево-дожд., верхняя 
[Cb calv|Cs]
+19.3 +11.1 59 +23  1012.8  -0.8  735  275           
18 26.05.17 190 (Ю) 10 км    4/1 600 м верхняя 
[Sc|Cs]
+18.1 +8 52 +19  1011.2  0.2  734  276           
21 26.05.17 140 (ЮВ) н/о    н/о 
+15.2 +6.4 56 +16  1010.7  -0.9  733  279           
00 27.05.17 140 (ЮВ) н/о    н/о 
+13.3 +6.6 64 +14  1009.7  -1.1  733  280           
03 27.05.17 200 (Ю) 20000 м    10/0 средняя, верхняя 
[Ac As|Cs]
+16.8 +8.6 58 +18  1008.4  -0.9  732  276  +12.1        влажная 
06 27.05.17 230 (ЮЗ) 20000 м    10/4 1000 м кучево-дожд., верхняя 
[Cb cap|Cs]
+21.9 +7.5 39 +22  1006.2  -1.6  731  271           
12 27.05.17 190 (Ю) 20000 м  {гроза, ливн. осадки}  10/10 600 м кучево-дожд. 
[Cb cap]
+19 +6.5 44 +21  1003.2  -2  728  273           
18 27.05.17 190 (Ю) 10 км  {ливн. осадки}  10/10 600 м кучево-дожд. 
[Cb cap]
+13.9 +9.5 75 +16  1000.7  -1.8  726  277           
21 27.05.17 150 (ЮВ) 10 км    10/10 600 м кучево-дожд. 
[Cb cap]
+12.1 +9.4 84 +13  999.4  -1.4  725  278           
00 28.05.17 210 (ЮЗ) 10 км  слаб. ливневой дождь  10/10 600 м кучево-дожд. 
[Cb cap]
+11.7 +9.1 84 +14  998.3  -1.1  724  278           
03 28.05.17 260 (З) 20000 м  {ливн. осадки}  8/8 600 м кучево-дожд. 
[Cb calv]
+13.1 +10.2 83 +15  996.7  -1.4  723  276  +11.4    0.4    влажная 
21 28.05.17 320 (СЗ) 10 км    9/9 600 м 
[Sc]
+1.8 -4.9 61 1009  0.6  731  293           
00 29.05.17 330 (СЗ) 20000 м    8/6 600 м верхняя 
[Sc|Cs]
+0.3 -3.8 74 -1  1009.6  0.4  731  295           
03 29.05.17 340 (С) 20000 м    9/6 600 м кучево-дожд., верхняя 
[Cb calv|Cs]
+2.6 -5.8 54 +2  1009.5  0.1  731  292  -0.1        влажная 
06 29.05.17 330 (СЗ) 20000 м    9/9 600 м кучево-дожд. 
[Cb calv]
+4.5 -6.3 45 +3  1009.1  -0.1  731  290           
09 29.05.17 320 (СЗ) 20000 м    9/9 600 м кучево-дожд. 
[Cb calv]
+6.6 -7.9 35 +8  1008.5  -0.3  731  288           
18 29.05.17 330 (СЗ) 10 км    4/4 600 м 
[Sc]
+4.7 -9 36 +4  1011.1  1.7  733  291           
Время (UTC), дата Ветер
(°,м/с) 
Видим.   Явления Облачность Т
(°С)
Тd
(°С)
f(%) Тe
(°С)
Pmin
(гПа)
dP
(гПа)
Po
(мм)
O2
(г/м3)
Тmin Tmax R s Состояние
почвы

Для получения пояснительной информации подведите курсор к названию столбца.

ПОГОДА в Екатеринбурге - архив

Всё, что Вы хотите узнать о погоде в Екатеринбурге - удобно и подробно!

Выберите нужную дату (начиная с 1 января 2015* года) и нажмите кнопку "Найти".
Будут отображены архивные сводки погоды по пункту Екатеринбург, начиная с указанной даты.


Отображать данные в формате CSV (для использования в таблицах Excel)


Внимание! Наш архив погоды предназначен исключительно для личного некоммерческого использования в познавательных целях. Если Вам необходимы официальные справки о состоянии погоды (для производственных, юридических, коммерческих и т.п. целей), обращайтесь в органы Росгидромета.

*Примечание: данная дата относится к архиву по метеостанциям СССР (Россия, СНГ, Балтия).
Архив по метеостанциям Зарубежной Европы и Азии (кроме Китая) хранится 10 дней, по другим регионам земного шара (Китай, Африка, Америка, Австралия, Океания) - 1 день.

Екатеринбург - район местоположения метеостанции


Название, широта, долгота, высота метеостанции:
Екатеринбург (город) 56.8°ш. 60.6°д. 283 м над ур. моря [Российская Федерация]

Дополнительная информация

В oтличие oт бoльшинства пoгoдных сайтoв мы публикуем пoдрoбную метеoинфoрмацию в детальнoм прoфессиoнальнoм фoрмате.

Характеристики температуры и влажнoсти вoздуха измеряются на высoте 2 м в тени вдали oт зданий и деревьев.
Скoрoсть ветра измеряется на высoте 10 м (на урoвне рoста челoвека скoрoсть ветра ниже в 1.5-2 раза). Если метеoстанция нахoдится в гoрoде или в лесу, тo скoрoсть ветра занижена на 2-4 м/с пo сравнению с oткрытым местoм. Скoрoсть ветра над акватoриями крупных рек и oзёр, а также на вершинах хoлмoв на 2-5 м/с выше, чем в oбычных услoвиях.
Атмoсфернoе давление в разных тoчках местнoсти мoжет значительнo oтличаться oт давления на метеoстанции, в зависимoсти oт услoвий рельефа (при пoдъёме на 10 м давление пoнижается примернo на 1 мм рт.ст.).